Location: Kumla
(59.1265°N, 15.1401°E)
Time: 17:15:32
(UTC+01:00)

A-11 Canister half - Pass Details

Date: 03 December 2023
Orbit: 1526 x 1682 km, 47.3° (Epoch: 24 February)

Event Time Altitude Azimuth Distance (km) Brightness Sun altitude
Rises 19:51:22 0° 218° (SW) 4,927 11.9 -34.4°
Reaches altitude 10° 19:55:00 10° 209° (SSW) 3,939 11.2 -34.8°
Enters shadow 19:59:57 26° 183° (S) 2,886 10.2 -35.5°
Maximum altitude 20:03:23 31° 152° (SSE) 2,611 - -35.9°
Drops below altitude 10° 20:11:40 10° 95° (E) 3,888 - -36.9°
Sets 20:15:13 0° 86° (E) 4,856 - -37.3°
